Coolidge Muni, Coolidge, AZ

4:49 PM MST on November 18, 2017 (GMT -0700)
Coolidge Muni, Coolidge

Weather History for KP08 - March, 2014

Change the Weather History Date:

Sunday, March 2, 2014

  Actual Average (KCGZ) Record (KCGZ)
Temperature  
Mean Temperature 58 °F -  
Max Temperature 64 °F 65 °F 87 °F (2009)
Min Temperature 51 °F 41 °F 26 °F (2013)
Degree Days  
Heating Degree Days 8    
Growing Degree Days 8 (Base 50)    
Moisture  
Dew Point 46 °F    
Average Humidity 62    
Maximum Humidity 88    
Minimum Humidity 42    
Precipitation  
Precipitation 0.00 in - - ()
Sea Level Pressure  
Sea Level Pressure 30.12 in    
Wind  
Wind Speed 3 mph (NNW)    
Max Wind Speed 9 mph    
Max Gust Speed 13 mph    
Visibility 10 miles    
Events      
Averages and records for this station are not official NWS values.
T = Trace of Precipitation, MM = Missing Value Source: NWS Daily Summary

Daily Weather History Graph

Daily Weather History Graph

Search for Another Location

Airport or City:

Trip Planner

Search our weather history database for the weather conditions in past years. The results will help you decide how hot, cold, wet, or windy it might be!

Date:

Astronomy

Mar. 02, 2014 Rise Set
Actual Time 6:52 AM MST 6:23 PM MST
Civil Twilight 6:27 AM MST 6:48 PM MST
Nautical Twilight 5:58 AM MST 7:17 PM MST
Astronomical Twilight 5:30 AM MST 7:45 PM MST
Moon 7:32 AM MST (3/2) 8:15 PM MST (3/2)
Length of Visible Light 12h 20m
Length of Day
11h 31m
Waxing Crescent, 3% of the Moon is Illuminated
Mar 2
Waxing Crescent
Mar 8
First Quarter
Mar 16
Full
Mar 23
Last Quarter
Mar 30
New

Hourly Weather History & Observations

Time (MST) Temp. Dew Point Humidity Pressure Visibility Wind Dir Wind Speed Gust Speed Precip Events Conditions
8:15 AM 51.8 °F 48.2 °F 88% 30.13 in 10.0 mi Calm Calm - N/A   Clear
8:35 AM 53.6 °F 50.0 °F 88% 30.14 in 10.0 mi Calm Calm - N/A   Scattered Clouds
8:55 AM 55.4 °F 48.2 °F 77% 30.15 in 10.0 mi Calm Calm - N/A   Mostly Cloudy
9:15 AM 55.4 °F 48.2 °F 77% 30.16 in 10.0 mi Calm Calm - N/A   Overcast
9:35 AM 57.2 °F 48.2 °F 72% 30.17 in 10.0 mi Calm Calm - N/A   Overcast
9:55 AM 57.2 °F 48.2 °F 72% 30.17 in 10.0 mi SW 4.6 mph - N/A   Mostly Cloudy
10:15 AM 57.2 °F 48.2 °F 72% 30.16 in 10.0 mi SSW 5.8 mph - N/A   Mostly Cloudy
10:35 AM 57.2 °F 46.4 °F 67% 30.16 in 10.0 mi Calm Calm - N/A   Clear
10:55 AM 59.0 °F 46.4 °F 63% 30.16 in 10.0 mi Calm Calm - N/A   Clear
11:15 AM 60.8 °F 46.4 °F 59% 30.15 in 10.0 mi Calm Calm - N/A   Clear
11:35 AM 60.8 °F 44.6 °F 55% 30.15 in 10.0 mi Calm Calm - N/A   Clear
11:55 AM 60.8 °F 42.8 °F 52% 30.14 in 10.0 mi WNW 4.6 mph - N/A   Partly Cloudy
12:15 PM 60.8 °F 42.8 °F 52% 30.13 in 10.0 mi NNE 3.5 mph - N/A   Clear
12:35 PM 62.6 °F 42.8 °F 48% 30.13 in 10.0 mi NNE 4.6 mph - N/A   Clear
12:55 PM 62.6 °F 42.8 °F 48% 30.13 in 10.0 mi Calm Calm - N/A   Clear
1:15 PM 62.6 °F 41.0 °F 45% 30.12 in 10.0 mi Calm Calm - N/A   Scattered Clouds
1:35 PM 64.4 °F 44.6 °F 49% 30.11 in 10.0 mi West 8.1 mph - N/A   Mostly Cloudy
1:55 PM 62.6 °F 41.0 °F 45% 30.10 in 10.0 mi Variable 3.5 mph - N/A   Partly Cloudy
2:15 PM 62.6 °F 41.0 °F 45% 30.10 in 10.0 mi WNW 8.1 mph - N/A   Partly Cloudy
2:35 PM 64.4 °F 41.0 °F 42% 30.09 in 10.0 mi North 4.6 mph 12.7 mph N/A   Clear
2:55 PM 64.4 °F 42.8 °F 45% 30.09 in 10.0 mi Variable 4.6 mph - N/A   Clear
3:15 PM 64.4 °F 41.0 °F 42% 30.08 in 10.0 mi Variable 3.5 mph - N/A   Clear
3:35 PM 64.4 °F 42.8 °F 45% 30.08 in 10.0 mi SW 5.8 mph - N/A   Clear
3:55 PM 64.4 °F 42.8 °F 45% 30.08 in 10.0 mi WNW 6.9 mph - N/A   Clear
4:15 PM 64.4 °F 42.8 °F 45% 30.08 in 10.0 mi West 9.2 mph - N/A   Clear
4:35 PM 64.4 °F 42.8 °F 45% 30.08 in 10.0 mi West 8.1 mph - N/A   Clear
4:55 PM 64.4 °F 42.8 °F 45% 30.08 in 10.0 mi WNW 8.1 mph - N/A   Clear
5:15 PM 62.6 °F 42.8 °F 48% 30.08 in 10.0 mi WNW 5.8 mph - N/A   Clear
5:35 PM 62.6 °F 44.6 °F 52% 30.08 in 10.0 mi WNW 5.8 mph - N/A   Clear
5:55 PM 62.6 °F 44.6 °F 52% 30.08 in 10.0 mi NW 4.6 mph - N/A   Clear
6:15 PM 60.8 °F 48.2 °F 63% 30.09 in 10.0 mi WNW 5.8 mph - N/A   Clear
6:35 PM 60.8 °F 50.0 °F 68% 30.09 in 10.0 mi NW 3.5 mph - N/A   Clear
6:55 PM 60.8 °F 50.0 °F 68% 30.10 in 10.0 mi NW 3.5 mph - N/A   Clear
7:15 PM 59.0 °F 50.0 °F 72% 30.10 in 10.0 mi NW 4.6 mph - N/A   Clear
7:35 PM 59.0 °F 50.0 °F 72% 30.11 in 10.0 mi North 4.6 mph - N/A   Clear
7:55 PM 59.0 °F 48.2 °F 67% 30.11 in 10.0 mi NNE 3.5 mph - N/A   Clear
8:15 PM 59.0 °F 50.0 °F 72% 30.11 in 10.0 mi NNE 3.5 mph - N/A   Clear
8:35 PM 59.0 °F 50.0 °F 72% 30.12 in 10.0 mi NE 4.6 mph - N/A   Clear
8:55 PM 59.0 °F 50.0 °F 72% 30.12 in 10.0 mi NNE 5.8 mph - N/A   Clear
9:15 PM 57.2 °F 50.0 °F 77% 30.13 in 10.0 mi NNE 3.5 mph - N/A   Clear
9:35 PM 57.2 °F 50.0 °F 77% 30.13 in 10.0 mi NE 4.6 mph - N/A   Clear
9:55 PM 57.2 °F 48.2 °F 72% 30.14 in 10.0 mi NNE 3.5 mph - N/A   Clear
10:15 PM 57.2 °F 48.2 °F 72% 30.14 in 10.0 mi Calm Calm - N/A   Clear
10:35 PM 57.2 °F 50.0 °F 77% 30.14 in 10.0 mi Calm Calm - N/A   Clear
10:55 PM 57.2 °F 48.2 °F 72% 30.14 in 10.0 mi Calm Calm - N/A   Clear
11:15 PM 55.4 °F 50.0 °F 82% 30.13 in 10.0 mi East 4.6 mph - N/A   Clear
11:35 PM 55.4 °F 48.2 °F 77% 30.13 in 10.0 mi Calm Calm - N/A   Clear
11:55 PM 55.4 °F 50.0 °F 82% 30.12 in 10.0 mi Calm Calm - N/A   Clear